Theta_e
311 311 311 312 312 313 312 312 310 310 311 310 310 310 309 308 307 305 303 301 301 300 299 299 300 300 301 300 300 301 302 307 310 312 314 316 316 316 316 316 316 316 316 316
309 309 310 311 311 311 312 312 311 311 311 309 309 309 309 308 307 305 302 301 300 299 299 298 298 299 299 299 299 300 302 303 307 309 311 311 312 313 313 313 314 314 313 313
308 308 307 307 308 309 310 310 311 312 311 308 307 307 307 307 306 304 302 300 299 298 298 298 298 298 298 298 299 299 301 302 304 305 307 307 307 307 306 307 307 308 308 310
308 306 309 306 307 307 308 308 308 309 308 307 306 306 306 304 304 302 301 300 298 298 298 298 298 297 297 298 298 298 299 300 301 301 301 304 303 303 303 305 304 304 305 305
308 307 305 306 308 308 309 307 307 307 307 306 306 307 305 304 302 301 299 299 299 299 299 298 297 296 296 296 297 298 298 299 300 301 300 301 301 301 301 300 301 300 300 302
306 308 310 304 306 308 307 306 307 306 306 306 306 307 303 304 302 300 300 300 300 300 299 298 297 297 295 294 296 296 297 297 299 300 300 300 300 300 299 299 298 298 298 298
307 307 306 304 306 308 306 303 307 308 307 305 306 304 302 302 301 301 301 301 300 300 299 298 297 297 295 294 294 295 295 296 297 298 298 299 299 299 298 298 297 296 297 296
304 305 305 305 308 304 301 305 307 308 307 304 303 304 303 301 300 299 300 300 301 300 299 299 297 296 295 294 294 293 294 295 295 296 296 297 297 297 297 297 296 295 294 293
304 304 302 304 303 304 304 304 306 307 306 305 303 302 302 302 300 299 300 301 301 300 300 299 298 297 295 295 294 293 293 292 293 294 294 295 295 295 296 295 294 293 292 291
302 299 299 299 301 302 302 301 303 304 305 304 303 302 302 301 300 299 300 300 301 300 299 299 299 298 297 296 295 294 293 292 292 293 293 293 293 294 294 293 293 293 292 290
298 298 298 299 299 300 300 299 299 299 301 303 303 302 301 301 300 300 301 301 301 301 300 300 300 299 299 297 296 294 293 292 291 291 291 291 292 291 292 292 292 292 292 290
300 297 298 298 300 299 298 297 297 296 297 299 302 302 301 300 301 302 301 302 301 301 301 301 300 300 300 299 297 296 294 293 292 290 290 291 289 289 289 289 290 291 290 289
298 297 298 298 297 296 296 296 297 297 297 298 299 301 302 300 302 302 302 302 301 301 302 301 300 300 300 299 298 297 296 294 292 291 290 290 290 290 288 288 288 288 289 289
295 299 298 296 296 296 295 295 296 295 295 297 299 300 300 301 302 303 302 303 303 303 302 302 301 300 301 300 299 298 297 296 294 293 291 290 290 290 290 289 287 288 288 287
296 295 296 294 293 294 294 294 294 294 294 294 297 298 300 300 301 302 304 304 303 302 302 302 301 301 301 300 299 299 297 296 294 293 292 290 289 289 289 289 289 289 288 287
296 295 294 294 294 294 294 294 295 295 294 294 297 299 301 302 302 303 304 304 302 300 302 302 302 303 302 301 300 299 298 297 295 294 292 290 289 289 289 288 288 288 287 287
297 296 297 296 295 294 294 293 293 295 295 296 297 298 299 300 301 302 303 303 303 303 303 303 303 304 303 302 300 299 299 298 296 294 292 291 290 289 289 288 287 287 287 287
294 295 295 295 294 294 294 294 295 296 296 297 298 298 297 297 296 298 299 300 301 301 302 303 303 303 302 301 301 299 298 298 296 294 293 291 290 289 288 288 287 287 287 287
293 294 294 294 294 294 294 294 296 297 296 297 296 296 296 296 297 297 297 298 297 297 299 300 300 300 300 301 300 299 297 296 294 293 292 291 290 289 288 287 287 287 286 286
294 294 295 295 296 296 295 296 296 296 296 295 295 294 293 294 295 295 295 295 296 296 297 298 298 298 299 300 300 297 296 294 293 292 291 290 289 289 288 287 287 287 287 286
294 294 294 294 294 295 295 295 294 294 295 294 293 292 293 293 294 293 292 291 295 295 296 296 297 297 298 298 298 296 295 294 292 291 290 289 288 288 288 288 287 287 287 286
292 292 293 294 293 293 295 294 293 293 293 292 292 292 292 292 293 293 293 293 294 294 294 294 295 295 296 296 296 296 294 293 292 290 289 288 288 287 288 287 287 287 287 286
291 292 293 293 292 293 294 294 294 293 292 293 293 293 292 292 292 290 290 293 292 293 292 292 292 293 294 295 295 294 293 292 291 290 289 288 288 288 288 287 287 286 286 285
293 294 295 295 294 292 289 294 294 294 293 293 293 293 292 291 291 292 292 291 291 291 291 291 291 291 292 293 294 294 293 292 291 290 288 288 289 289 287 287 286 286 286 285
295 295 294 293 291 291 293 293 293 293 294 294 294 293 293 292 291 291 290 290 290 290 290 289 289 290 291 292 293 293 292 291 290 289 288 288 288 288 287 287 287 286 286 286
294 293 294 295 294 294 294 293 291 292 292 291 293 293 292 291 291 291 291 290 290 289 289 289 288 289 290 291 292 292 292 291 290 288 289 288 288 287 287 287 286 286 286 286
293 293 292 292 293 294 294 293 291 291 292 293 292 292 291 291 291 290 290 290 289 290 289 289 289 289 290 291 291 291 291 290 289 288 288 288 287 287 287 287 286 286 285 284
Wind_Speed
11 14 12 13 12 12 13 14 6 4 6 12 9 9 4 4 4 6 6 7 8 10 10 18 23 25 26 25 26 23 18 12 11 10 12 2 4 7 11 13 16 18 20 22
7 12 12 14 14 15 17 16 18 17 22 18 16 4 4 5 5 6 6 6 7 8 11 14 18 21 21 23 23 23 21 21 15 13 12 9 6 3 3 2 5 6 7 6
5 6 7 6 9 14 7 6 13 13 17 7 6 7 7 5 6 6 5 5 6 7 11 13 17 17 19 21 21 22 20 20 17 14 13 12 9 9 11 7 9 7 5 4
5 6 2 5 4 5 12 13 14 12 9 6 7 5 6 6 6 7 5 5 5 7 10 14 16 16 15 18 21 21 22 21 20 17 12 9 10 12 13 12 14 13 11 11
2 2 8 7 2 4 5 6 7 16 12 7 5 2 6 8 8 7 6 6 6 7 8 11 12 13 14 17 18 20 20 19 17 17 16 13 13 13 13 15 14 15 16 17
3 2 4 5 2 3 4 4 4 4 7 6 5 2 5 3 6 7 8 7 6 7 8 9 11 9 11 13 15 16 15 15 15 14 14 13 11 13 16 17 18 19 21 21
6 4 8 8 4 3 1 5 3 3 1 6 5 6 3 6 5 8 10 9 6 5 6 8 9 8 10 11 14 11 10 10 11 13 12 12 12 11 13 15 16 18 20 21
4 4 8 6 4 6 5 2 2 2 2 5 6 3 5 7 7 8 10 10 9 7 6 6 5 5 5 7 9 8 8 9 10 10 10 9 9 8 9 10 13 15 17 18
10 7 6 7 6 5 4 4 3 3 5 6 6 6 7 7 8 9 12 14 12 11 9 7 6 4 4 5 6 6 6 7 7 7 7 7 7 6 7 7 9 10 10 11
1 4 12 12 7 7 6 6 6 6 6 5 8 7 8 7 7 7 14 15 14 12 12 12 8 7 5 3 3 3 3 4 4 4 3 4 3 4 5 5 5 5 6 7
7 10 10 15 6 2 3 2 3 5 6 8 8 8 8 7 8 12 17 18 16 17 18 17 12 13 10 8 6 5 4 2 2 1 1 3 3 4 5 4 4 6 7 8
7 9 5 5 4 4 5 7 7 7 7 7 8 9 7 8 13 16 17 18 19 21 20 21 18 18 16 13 11 9 9 8 6 6 5 5 3 3 2 2 3 4 4 5
6 5 5 7 8 5 6 5 4 6 7 7 8 10 11 5 16 19 21 21 23 26 26 24 22 21 19 18 16 15 14 11 10 9 9 9 9 8 6 4 3 3 3 2
8 2 6 5 6 3 4 8 12 12 15 14 14 16 16 14 16 16 19 26 26 26 25 25 23 25 25 22 22 20 18 17 16 14 13 12 11 10 9 9 8 7 4 3
9 8 7 4 6 7 7 6 7 7 7 8 15 13 15 9 9 17 23 23 24 24 26 26 27 30 27 25 26 25 23 22 19 17 15 14 13 12 11 11 11 11 10 8
6 4 4 6 8 7 6 7 5 6 5 5 7 10 13 14 15 16 18 20 17 17 27 29 31 33 30 27 28 28 26 24 21 20 19 18 17 16 15 14 13 13 13 13
4 4 3 4 4 4 5 6 5 6 6 5 8 12 13 12 11 13 17 19 21 25 28 29 34 32 31 29 29 32 31 28 26 25 24 23 22 21 20 18 17 17 17 15
7 6 5 5 6 5 6 4 5 6 3 9 11 10 10 10 8 15 19 20 20 23 25 28 31 33 32 30 29 31 33 33 30 30 29 27 26 24 23 21 21 20 18 16
8 8 7 5 6 5 5 5 6 7 8 7 8 9 11 13 16 18 18 19 18 16 29 22 22 23 25 27 28 31 33 32 30 29 29 26 24 24 24 22 22 21 19 17
7 5 4 5 8 8 8 11 11 10 10 8 9 12 12 16 16 17 17 19 22 22 25 25 24 24 24 24 25 28 31 30 29 27 26 27 27 26 24 24 23 23 21 19
9 7 6 6 7 9 12 15 14 15 16 13 12 13 15 19 18 16 14 8 23 23 22 21 21 22 21 21 22 26 29 29 27 25 25 22 23 23 24 24 23 22 21 20
6 5 7 6 6 12 11 12 14 16 19 17 15 14 15 17 17 18 16 17 22 16 20 23 23 22 21 20 23 24 26 28 25 22 23 22 22 21 22 22 23 24 22 20
10 9 9 8 8 10 12 12 17 19 18 16 14 15 15 17 16 13 7 9 19 21 24 26 26 24 23 21 21 22 24 25 23 21 21 21 22 23 22 23 22 21 20 19
7 10 13 11 8 8 7 17 16 16 17 18 18 15 14 18 15 10 14 22 24 24 25 25 27 24 21 20 20 22 23 23 22 21 23 22 22 21 20 19 18 18 19 18
14 13 11 8 5 7 18 21 15 16 15 17 18 17 14 12 13 20 19 20 21 21 23 23 24 21 20 18 18 20 20 21 21 21 22 21 20 19 18 18 19 19 17 15
13 13 17 20 16 18 22 20 13 14 14 15 18 19 18 16 14 17 19 20 19 19 20 22 21 19 16 15 15 18 19 19 18 18 20 19 17 17 17 17 17 15 13 13
21 21 16 18 24 24 24 23 17 14 14 14 17 21 19 18 15 16 18 17 17 19 19 20 19 17 15 13 14 16 17 16 16 17 16 15 15 16 16 16 14 11 11 11
Wind_Direction
257 261 257 249 239 216 206 217 207 253 244 273 273 275 233 233 274 305 317 323 336 331 340 349 355 3 6 6 2 0 16 41 33 30 45 94 231 252 247 246 251 252 258 260
273 252 248 252 247 237 231 229 241 257 275 277 271 201 224 219 266 298 313 328 324 325 338 352 356 356 2 359 1 6 25 43 54 53 59 64 73 86 112 178 214 221 221 239
268 314 312 287 235 219 215 213 222 236 246 255 233 232 234 225 233 263 289 305 317 325 332 351 2 9 8 2 11 17 25 48 56 60 62 58 56 60 68 74 73 77 69 31
276 324 269 239 226 199 205 234 221 240 239 203 222 223 205 192 206 241 251 276 298 324 340 349 359 15 24 30 30 26 24 28 39 45 49 60 68 71 80 77 74 77 75 67
268 274 289 301 184 163 184 282 224 231 247 222 166 100 279 218 192 205 221 253 285 327 340 346 356 5 22 33 35 40 33 32 37 42 52 61 70 78 83 88 88 81 76 80
331 293 260 240 190 150 97 295 287 228 246 177 133 256 259 231 179 194 212 231 276 317 327 344 356 3 20 28 31 31 32 36 46 56 66 75 88 97 99 100 94 92 82 77
231 273 283 249 187 145 95 235 297 325 287 151 192 209 226 169 204 205 213 228 247 286 307 329 345 349 10 16 22 18 24 32 42 48 55 65 76 86 95 100 99 94 91 84
186 221 272 167 100 175 217 243 274 277 245 200 233 213 195 200 208 211 223 233 238 254 276 291 318 335 357 13 10 7 20 36 39 42 46 55 65 71 77 82 83 80 81 76
188 217 235 211 218 217 199 218 253 255 258 247 240 217 215 224 221 219 224 232 236 242 260 271 267 298 319 345 358 358 11 31 36 38 42 48 59 66 73 74 82 85 85 81
24 264 237 249 243 243 233 234 241 245 240 224 237 236 232 225 227 223 232 234 237 236 246 259 250 249 264 284 307 318 355 20 23 30 27 47 62 85 93 95 104 115 117 109
262 280 277 274 215 272 185 228 266 283 254 248 229 238 224 228 225 223 229 233 233 233 240 248 246 243 248 246 241 239 250 262 250 221 166 123 110 115 127 123 162 169 167 164
234 226 205 237 190 217 289 271 267 269 283 271 249 244 229 235 233 229 228 234 231 237 242 250 246 246 246 244 241 236 231 232 236 229 224 221 202 160 134 122 143 142 153 149
238 195 206 244 254 251 257 261 273 293 280 276 270 260 257 237 240 243 240 235 233 237 242 247 246 247 249 246 245 247 248 246 240 235 230 228 228 231 230 225 198 177 175 167
227 237 286 226 251 180 268 266 277 268 266 263 268 282 269 255 246 231 234 241 244 245 247 250 249 249 251 244 244 245 246 247 245 245 243 241 243 249 252 251 254 257 261 271
217 209 232 282 297 281 281 288 290 282 277 280 276 268 276 261 246 244 256 256 255 252 250 253 252 255 258 249 245 247 245 247 246 249 251 252 254 256 258 261 266 273 276 268
182 212 263 263 279 296 294 302 286 291 292 285 285 297 296 285 276 275 274 270 255 250 257 258 261 267 268 260 249 251 251 252 251 248 246 241 241 241 242 245 250 255 258 260
152 263 209 266 266 310 299 290 277 284 303 312 307 316 316 318 310 297 290 283 277 273 270 268 269 273 271 267 256 249 251 250 244 242 240 239 240 240 242 242 244 248 251 253
176 126 140 174 214 240 272 276 295 308 304 318 321 323 324 320 298 302 304 304 298 289 278 276 277 276 274 270 263 253 249 249 244 237 242 239 239 240 239 238 240 242 247 247
172 172 199 220 239 248 265 275 284 296 311 322 324 316 315 308 307 307 311 303 295 287 294 302 303 297 284 277 269 257 251 249 249 246 243 243 241 242 240 240 243 244 245 243
167 166 180 240 273 262 267 271 278 279 289 297 302 299 298 306 313 311 313 294 292 290 302 306 307 298 287 280 274 262 253 248 244 244 242 238 238 239 239 240 242 241 238 236
174 185 207 231 256 277 289 298 297 291 295 296 291 285 289 301 305 309 304 292 304 315 316 315 311 308 302 293 279 260 252 247 241 235 231 224 227 231 240 241 241 240 239 239
163 191 217 210 248 282 296 298 293 297 299 302 305 301 301 305 315 312 304 285 312 331 325 319 315 312 307 301 286 269 254 248 239 233 226 221 218 221 236 241 241 241 239 237
184 200 218 233 235 265 290 298 302 302 299 300 299 300 297 298 303 296 303 323 323 323 319 318 320 314 310 300 285 271 260 249 241 233 227 222 225 233 235 239 238 236 233 235
207 211 237 256 265 279 290 296 299 294 290 291 292 297 301 303 310 310 318 317 321 324 321 320 322 317 310 297 284 269 261 252 244 235 230 232 234 232 231 232 230 229 229 226
227 240 250 243 253 263 278 287 288 284 284 285 295 302 306 310 292 309 316 317 320 322 321 321 322 316 311 300 285 268 259 251 243 238 235 233 230 229 228 226 223 220 220 223
240 241 249 260 254 270 275 278 261 268 269 275 293 301 305 298 289 301 309 315 318 319 315 319 323 317 309 296 286 267 253 244 235 233 234 229 225 225 225 220 216 212 217 227
264 261 259 262 265 265 268 261 254 257 263 272 276 289 290 289 289 297 303 308 315 319 321 323 321 315 308 298 282 261 248 240 235 232 230 225 219 220 218 210 206 213 224 232